Date String (YYYY-MM-DD hh:mm:ss) UTC,Instrument flags,Ambient pressure (hPa),Sample flow (lpm),Bypass flow (lpm),Sample temperature (°C),Ambient temperature (°C),ASC tube jacket temperature (°C),LED temperature (°C),Box temperature (°C),Sample RH (%),Span deviation,Mass concentration (μg/m³),Mass concentration (μg/m³),Mass concentration (μg/m³)
DateTimeUTC,F1_M11,P_M11,Q1_M11,Q2_M11,T1_M11,T2_M11,T3_M11,T4_M11,T5_M11,U1_M11,ZSPAN_M11,X0_M11,X2_M11,X1_M11
2021-09-23 21:00:00,,0827.5,5.00,0.00,29.4,26.5,00.0,38.4,30.8,10.3,0000.6,0015.47,0006.06,0005.10
2021-09-23 21:01:00,,0827.5,5.00,0.00,29.2,25.7,00.0,38.4,30.6,10.3,0000.7,0015.06,0006.08,0005.12
2021-09-23 21:02:00,,0827.5,4.99,0.00,29.2,26.0,00.0,38.3,30.7,10.4,0001.6,0014.31,0006.19,0005.17
2021-09-23 21:03:00,,0827.5,5.00,0.00,29.1,26.5,00.0,38.3,30.7,10.5,0001.9,0014.49,0006.24,0005.21
2021-09-23 21:04:00,,0827.5,5.01,0.00,29.1,27.0,00.0,38.3,30.9,10.6,0002.2,0014.81,0006.27,0005.24
2021-09-23 21:05:00,,0827.5,5.00,0.00,29.2,27.4,00.0,38.3,31.0,10.4,0001.8,0014.78,0006.32,0005.26
2021-09-23 21:06:00,,0827.5,5.00,0.00,29.2,27.8,00.0,38.3,31.1,10.5,0001.5,0014.98,0006.35,0005.29
2021-09-23 21:07:00,,0827.5,4.99,0.00,29.3,28.1,00.0,38.3,31.2,10.6,0001.6,0015.53,0006.47,0005.35
2021-09-23 21:08:00,,0827.5,5.00,0.00,29.3,28.3,00.0,38.3,31.3,10.4,0001.7,0015.69,0006.50,0005.38
2021-09-23 21:09:00,,0827.5,5.00,0.00,29.4,28.5,00.0,38.3,31.4,10.2,0002.5,0016.18,0006.48,0005.41
2021-09-23 21:10:00,,0827.5,5.00,0.00,29.5,28.5,00.0,38.4,31.4,10.0,0001.7,0016.65,0006.47,0005.44
2021-09-23 21:11:00,,0827.5,4.99,0.00,29.4,27.0,00.0,38.4,31.0,10.0,0002.0,0016.80,0006.50,0005.48
2021-09-23 21:12:00,,0827.5,5.00,0.00,29.2,25.6,00.0,38.3,30.6,10.1,0001.8,0016.39,0006.52,0005.52
2021-09-23 21:13:00,,0827.5,5.01,0.00,29.2,25.9,00.0,38.3,30.6,10.2,0001.2,0015.57,0006.48,0005.52
2021-09-23 21:14:00,,0827.5,5.00,0.00,29.1,26.3,00.0,38.3,30.7,10.4,0001.7,0015.90,0006.49,0005.53
2021-09-23 21:15:00,,0827.5,5.01,0.00,29.1,26.8,00.0,38.3,30.8,10.2,0000.8,0016.25,0006.55,0005.58
2021-09-23 21:16:00,,0827.5,4.99,0.00,29.1,27.3,00.0,38.2,30.9,10.2,0000.5,0016.25,0006.59,0005.63
2021-09-23 21:17:00,,0827.5,5.01,0.00,29.2,27.7,00.0,38.2,31.0,10.3,0000.2,0016.32,0006.65,0005.68
2021-09-23 21:18:00,,0827.4,5.00,0.00,29.3,28.0,00.0,38.2,31.1,10.4,0000.5,0016.11,0006.67,0005.73
2021-09-23 21:19:00,,0827.4,5.00,0.00,29.3,28.3,00.0,38.3,31.2,10.3,0000.4,0015.68,0006.65,0005.78
2021-09-23 21:20:00,,0827.5,5.00,0.00,29.4,28.5,00.0,38.3,31.3,10.1,-000.5,0015.47,0006.80,0005.88
2021-09-23 21:21:00,,0827.5,5.00,0.00,29.4,28.7,00.0,38.3,31.4,09.9,-001.0,0015.43,0006.95,0005.99
2021-09-23 21:22:00,,0827.4,4.99,0.00,29.5,28.4,00.0,38.4,31.3,09.9,-000.7,0015.06,0007.08,0006.13
2021-09-23 21:23:00,,0827.4,4.99,0.00,29.4,26.5,00.0,38.3,30.8,09.9,-000.8,0015.40,0007.24,0006.26
2021-09-23 21:24:00,,0827.4,5.00,0.00,29.2,25.7,00.0,38.3,30.6,10.2,0000.1,0016.22,0007.34,0006.38
2021-09-23 21:25:00,,0827.4,5.00,0.00,29.2,26.1,00.0,38.3,30.7,10.4,-000.2,0016.82,0007.44,0006.50
2021-09-23 21:26:00,,0827.4,5.00,0.00,29.1,26.6,00.0,38.3,30.8,10.1,0000.3,0016.23,0007.50,0006.57
2021-09-23 21:27:00,,0827.4,5.00,0.00,29.1,27.0,00.0,38.2,30.9,10.4,0000.1,0016.27,0007.60,0006.65
2021-09-23 21:28:00,,0827.4,5.00,0.00,29.2,27.4,00.0,38.2,31.0,10.1,-000.4,0016.13,0007.65,0006.71
2021-09-23 21:29:00,,0827.4,5.00,0.00,29.2,27.8,00.0,38.3,31.1,10.2,-000.5,0016.45,0007.72,0006.79
2021-09-23 21:30:00,,0827.4,5.00,0.00,29.3,28.1,00.0,38.3,31.2,10.1,0000.1,0017.15,0007.89,0006.89
2021-09-23 21:31:00,,0827.4,5.00,0.00,29.4,28.4,00.0,38.3,31.3,10.0,0000.4,0017.11,0007.95,0006.95
2021-09-23 21:32:00,,0827.4,4.99,0.00,29.4,28.6,00.0,38.3,31.4,10.0,0001.0,0017.42,0007.93,0006.96
2021-09-23 21:33:00,,0827.4,5.02,0.00,29.4,27.7,00.0,38.3,31.1,10.1,0000.3,0018.28,0007.96,0006.96
2021-09-23 21:34:00,,0827.4,4.99,0.00,29.3,25.9,00.0,38.3,30.6,10.1,-000.3,0019.69,0007.98,0006.96
2021-09-23 21:35:00,,0827.4,5.00,0.00,29.1,25.7,00.0,38.3,30.5,10.1,-000.5,0019.66,0008.00,0006.98
2021-09-23 21:36:00,,0827.4,5.00,0.00,29.1,26.2,00.0,38.3,30.6,10.4,-000.5,0018.77,0008.05,0007.01
2021-09-23 21:37:00,,0827.4,5.01,0.00,29.1,26.6,00.0,38.2,30.7,10.3,-000.7,0018.57,0008.10,0007.06
2021-09-23 21:38:00,,0827.4,4.99,0.00,29.1,27.1,00.0,38.2,30.8,10.1,-000.5,0018.41,0008.11,0007.12
2021-09-23 21:39:00,,0827.4,5.01,0.00,29.2,27.5,00.0,38.2,31.0,10.2,-000.1,0018.50,0008.18,0007.19
2021-09-23 21:40:00,,0827.4,4.99,0.00,29.2,27.9,00.0,38.2,31.1,10.1,0000.2,0019.27,0008.29,0007.28
2021-09-23 21:41:00,,0827.4,5.00,0.00,29.3,28.1,00.0,38.3,31.2,10.1,0000.1,0018.84,0008.33,0007.33
2021-09-23 21:42:00,,0827.4,5.01,0.00,29.3,28.2,00.0,38.3,31.2,10.1,-000.0,0018.29,0008.35,0007.37
2021-09-23 21:43:00,,0827.4,4.99,0.00,29.3,26.7,00.0,38.3,30.7,10.2,-000.3,0018.18,0008.45,0007.42
2021-09-23 21:44:00,,0827.3,5.01,0.00,29.1,25.4,00.0,38.2,30.3,10.4,0000.4,0017.71,0008.53,0007.48
2021-09-23 21:45:00,,0827.4,4.99,0.00,29.0,25.7,00.0,38.2,30.4,10.3,0000.7,0016.01,0008.57,0007.55
2021-09-23 21:46:00,,0827.4,5.00,0.00,29.0,26.2,00.0,38.2,30.6,10.3,0000.5,0015.61,0008.61,0007.61
2021-09-23 21:47:00,,0827.4,5.00,0.00,29.0,26.7,00.0,38.1,30.7,10.3,0000.9,0016.47,0008.67,0007.68
2021-09-23 21:48:00,,0827.4,5.00,0.00,29.0,27.2,00.0,38.1,30.8,10.3,0000.9,0018.10,0008.73,0007.73
2021-09-23 21:49:00,,0827.4,5.01,0.00,29.1,27.6,00.0,38.1,30.9,10.3,0000.5,0018.70,0008.77,0007.80
2021-09-23 21:50:00,,0827.3,4.99,0.00,29.2,27.9,00.0,38.2,31.0,10.3,0000.8,0019.64,0008.81,0007.85
2021-09-23 21:51:00,,0827.4,5.00,0.00,29.2,28.2,00.0,38.2,31.2,10.3,0000.9,0019.23,0008.86,0007.90
2021-09-23 21:52:00,,0827.3,5.00,0.00,29.3,28.4,00.0,38.2,31.3,10.2,0000.9,0019.00,0008.96,0007.98
2021-09-23 21:53:00,,0827.4,5.00,0.00,29.4,28.6,00.0,38.2,31.3,10.1,0000.6,0019.19,0009.07,0008.12
2021-09-23 21:54:00,,0827.4,4.99,0.00,29.4,28.3,00.0,38.3,31.2,10.1,0000.4,0019.81,0009.17,0008.26
2021-09-23 21:55:00,,0827.4,5.01,0.00,29.3,26.4,00.0,38.2,30.7,10.0,0000.4,0020.08,0009.32,0008.44
2021-09-23 21:56:00,,0827.4,5.00,0.00,29.1,25.6,00.0,38.2,30.5,10.0,0000.5,0020.30,0009.50,0008.59
2021-09-23 21:57:00,,0827.4,5.00,0.00,29.1,26.0,00.0,38.2,30.6,10.1,0000.5,0021.29,0009.73,0008.75
2021-09-23 21:58:00,,0827.4,5.00,0.00,29.1,26.5,00.0,38.2,30.7,10.1,-000.1,0020.47,0009.90,0008.88
2021-09-23 21:59:00,,0827.4,5.01,0.00,29.1,26.9,00.0,38.2,30.8,10.0,0000.2,0019.82,0010.06,0009.01
